Crescent City, CA

7:19 PM PST on February 21, 2017 (GMT -0800)
McNamara

Weather History for KCEC - April, 2013

Change the Weather History Date:

Monday, April 15, 2013

  Actual Average Record
Temperature  
Mean Temperature 44 °F 49 °F  
Max Temperature 50 °F 54 °F 84 °F (1999)
Min Temperature 37 °F 44 °F 32 °F (1955)
Degree Days  
Heating Degree Days 22 16  
Month to date heating degree days 240  
Since 1 July heating degree days 3926  
Cooling Degree Days 0 0  
Month to date cooling degree days 0  
Year to date cooling degree days 0  
Moisture  
Dew Point 38 °F    
Average Humidity 79    
Maximum Humidity 92    
Minimum Humidity 66    
Precipitation  
Precipitation T in 0.18 in 2.31 in (1965)
Month to date precipitation 3.05 3.08  
Year to date precipitation 16.31 30.21  
Since 1 July precipitation 50.01  
Snow  
Snow 0.00 in - - ()
Month to date snowfall 0.0  
Since 1 July snowfall 0.0  
Snow Depth -    
Sea Level Pressure  
Sea Level Pressure 30.07 in    
Wind  
Wind Speed 11 mph (NNW)    
Max Wind Speed 28 mph    
Max Gust Speed 36 mph    
Visibility 10 miles    
Events Rain    
T = Trace of Precipitation, MM = Missing Value Source: NWS Daily Summary

Daily Weather History Graph

Daily Weather History Graph

Search for Another Location

Airport or City:

Trip Planner

Search our weather history database for the weather conditions in past years. The results will help you decide how hot, cold, wet, or windy it might be!

Date:

Astronomy

Apr. 15, 2013 Rise Set
Actual Time 6:36 AM PDT 7:58 PM PDT
Civil Twilight 6:07 AM PDT 8:27 PM PDT
Nautical Twilight 5:32 AM PDT 9:02 PM PDT
Astronomical Twilight 4:55 AM PDT 9:38 PM PDT
Moon 10:04 AM PDT (4/15) 12:17 AM PDT (4/15)
Length of Visible Light 14h 19m
Length of Day
13h 21m
Waxing Crescent, 25% of the Moon is Illuminated
Apr 15
Waxing Crescent
Apr 18
First Quarter
Apr 25
Full
May 2
Last Quarter
May 9
New

Hourly Weather History & Observations

Time (PDT) Temp. Windchill Dew Point Humidity Pressure Visibility Wind Dir Wind Speed Gust Speed Precip Events Conditions
12:56 AM 45.0 °F 39.3 °F 39.9 °F 82% 30.01 in 10.0 mi NNW 11.5 mph - N/A   Clear
1:56 AM 44.1 °F 41.5 °F 37.9 °F 79% 30.01 in 10.0 mi North 4.6 mph - N/A   Clear
2:56 AM 41.0 °F 38.0 °F 36.0 °F 82% 30.01 in 8.0 mi North 4.6 mph - N/A   Clear
3:56 AM 39.0 °F - 35.1 °F 86% 30.01 in 10.0 mi Calm Calm - N/A   Clear
4:56 AM 37.0 °F 34.5 °F 33.1 °F 86% 30.01 in 10.0 mi NE 3.5 mph - N/A   Clear
5:56 AM 39.0 °F - 36.0 °F 89% 30.01 in 10.0 mi Calm Calm - N/A   Scattered Clouds
6:56 AM 37.9 °F 35.5 °F 35.1 °F 89% 30.03 in 10.0 mi North 3.5 mph - N/A   Overcast
7:56 AM 42.1 °F - 39.0 °F 89% 30.05 in 10.0 mi Calm Calm - 0.00 in   Overcast
8:56 AM 44.1 °F 42.5 °F 39.9 °F 85% 30.06 in 9.0 mi Variable 3.5 mph - 0.00 in Rain Light Rain
9:56 AM 46.9 °F - 39.9 °F 77% 30.06 in 10.0 mi NNW 6.9 mph - 0.00 in   Clear
10:56 AM 48.9 °F - 39.9 °F 71% 30.06 in 10.0 mi NW 12.7 mph - N/A   Partly Cloudy
11:56 AM 48.9 °F - 41.0 °F 74% 30.06 in 10.0 mi NW 19.6 mph 25.3 mph N/A   Clear
12:56 PM 50.0 °F - 39.9 °F 68% 30.06 in 10.0 mi NW 18.4 mph 29.9 mph N/A   Clear
1:56 PM 50.0 °F - 39.9 °F 68% 30.06 in 10.0 mi NW 23.0 mph 32.2 mph N/A   Clear
2:56 PM 50.0 °F - 39.9 °F 68% 30.08 in 10.0 mi NW 23.0 mph 29.9 mph N/A   Clear
3:56 PM 48.9 °F - 39.0 °F 69% 30.07 in 10.0 mi NW 24.2 mph 34.5 mph N/A   Clear
4:56 PM 50.0 °F - 39.0 °F 66% 30.08 in 10.0 mi NW 18.4 mph 33.4 mph N/A   Clear
5:56 PM 48.9 °F - 39.9 °F 71% 30.09 in 10.0 mi NW 19.6 mph 34.5 mph N/A   Scattered Clouds
6:56 PM 48.0 °F - 37.9 °F 68% 30.09 in 10.0 mi NW 24.2 mph 32.2 mph N/A   Clear
7:56 PM 46.0 °F 38.3 °F 39.0 °F 76% 30.11 in 10.0 mi NNW 20.7 mph 29.9 mph N/A   Clear
8:56 PM 46.0 °F 39.3 °F 39.9 °F 79% 30.13 in 10.0 mi NNW 16.1 mph 23.0 mph N/A   Clear
9:56 PM 46.0 °F 41.9 °F 39.0 °F 76% 30.16 in 10.0 mi North 8.1 mph - N/A   Clear
10:56 PM 45.0 °F 39.7 °F 37.9 °F 76% 30.18 in 10.0 mi North 10.4 mph 18.4 mph N/A   Clear
11:56 PM 45.0 °F 41.2 °F 36.0 °F 71% 30.19 in 10.0 mi North 6.9 mph 17.3 mph N/A   Clear